Location: Austin
(30.3000°N, 97.7500°W)
Time: 05:14:38
(UTC-06:00)

OAO 2 Rocket - Pass Details

Date: 03 March 2026
Orbit: 668 x 734 km, 35.0° (Epoch: 5 March)

Event Time Altitude Azimuth Distance (km) Brightness Sun altitude
Rises 19:16:22 0° 284° (WNW) 3,062 8.4 -10.5°
Reaches altitude 10° 19:18:52 10° 289° (WNW) 2,134 7.1 -11.0°
Maximum altitude 19:23:42 50° 5° (N) 863 3.7 -12.1°
Enters shadow 19:27:11 18° 75° (ENE) 1,640 4.6 -12.8°
